Whiteman AFB, MO

3:54 PM CST on December 15, 2019 (GMT -0600)
Whiteman Air Force Base

Weather History for KSZL - October, 2019

Change the Weather History Date:

Tuesday, October 29, 2019

  Actual Average Record
Temperature  
Mean Temperature 35 °F -  
Max Temperature 37 °F 60 °F 81 °F (2016)
Min Temperature 33 °F 43 °F 24 °F (2017)
Degree Days  
Heating Degree Days 30    
Moisture  
Dew Point 35 °F    
Average Humidity 100    
Maximum Humidity 100    
Minimum Humidity 93    
Precipitation  
Precipitation 0.32 in - - ()
Sea Level Pressure  
Sea Level Pressure 30.22 in    
Wind  
Wind Speed 10 mph (NNE)    
Max Wind Speed 14 mph    
Max Gust Speed -    
Visibility 8 miles    
Events Rain , Snow    
Averages and records for this station are not official NWS values.
T = Trace of Precipitation, MM = Missing Value Source: NWS Daily Summary

Daily Weather History Graph

Daily Weather History Graph

Search for Another Location

Airport or City:

Astronomy

Oct. 29, 2019 Rise Set
Actual Time 7:37 AM CDT 6:17 PM CDT
Civil Twilight 7:10 AM CDT 6:44 PM CDT
Nautical Twilight 6:38 AM CDT 7:16 PM CDT
Astronomical Twilight 6:08 AM CDT 7:47 PM CDT
Moon 9:11 AM CDT (10/29) 7:43 PM CDT (10/29)
Length of Visible Light 11h 34m
Length of Day
10h 39m
Waxing Crescent, 3% of the Moon is Illuminated
Oct 29
Waxing Crescent
Nov 4
First Quarter
Nov 12
Full
Nov 19
Last Quarter
Nov 26
New

Hourly Weather History & Observations

Time (CDT) Temp. Windchill Dew Point Humidity Pressure Visibility Wind Dir Wind Speed Gust Speed Precip Events Conditions
12:56 AM 35.4 °F 27.3 °F 35.4 °F 100% 30.12 in 10.0 mi North 11.5 mph - N/A   Overcast
1:57 AM 35.1 °F 26.4 °F 35.1 °F 100% 30.12 in 10.0 mi North 12.7 mph - N/A   Overcast
2:56 AM 34.7 °F 26.9 °F 34.7 °F 100% 30.15 in 10.0 mi North 10.4 mph - N/A   Overcast
3:56 AM 34.2 °F 27.5 °F 34.2 °F 100% 30.16 in 10.0 mi North 8.1 mph - N/A   Overcast
5:00 AM 34.2 °F 26.8 °F 34.2 °F 100% 30.18 in 10.0 mi North 9.2 mph - N/A   Overcast
5:56 AM 34.0 °F 28.0 °F 34.0 °F 100% 30.19 in 10.0 mi North 6.9 mph - N/A   Overcast
6:59 AM 34.0 °F 28.0 °F 34.0 °F 100% 30.20 in 10.0 mi North 6.9 mph - N/A   Overcast
7:57 AM 34.0 °F 27.2 °F 34.0 °F 100% 30.23 in 10.0 mi North 8.1 mph - N/A   Overcast
8:56 AM 34.7 °F 27.5 °F 34.7 °F 100% 30.24 in 10.0 mi North 9.2 mph - N/A   Overcast
9:56 AM 35.4 °F 28.4 °F 35.4 °F 100% 30.25 in 10.0 mi NNE 9.2 mph - N/A   Overcast
10:22 AM 35.6 °F 28.0 °F 35.6 °F 100% 30.26 in 10.0 mi North 10.4 mph - N/A   Overcast
10:56 AM 35.6 °F 28.6 °F 35.6 °F 100% 30.27 in 10.0 mi NE 9.2 mph - N/A   Overcast
11:56 AM 36.5 °F 29.7 °F 36.5 °F 100% 30.27 in 10.0 mi NE 9.2 mph - N/A   Overcast
12:11 PM 37.4 °F 30.8 °F 35.6 °F 93% 30.28 in 10.0 mi NNE 9.2 mph - N/A   Overcast
12:56 PM 36.9 °F 30.7 °F 36.9 °F 100% 30.25 in 10.0 mi NNE 8.1 mph - N/A   Overcast
1:56 PM 36.7 °F 32.0 °F 36.5 °F 99% 30.25 in 10.0 mi NE 5.8 mph - N/A   Overcast
2:56 PM 37.0 °F 30.4 °F 36.9 °F 99% 30.22 in 10.0 mi NNE 9.2 mph - N/A   Overcast
3:56 PM 36.1 °F 27.3 °F 36.0 °F 99% 30.21 in 10.0 mi NE 13.8 mph - N/A   Overcast
4:27 PM 35.6 °F 28.0 °F 35.6 °F 100% 30.23 in 6.0 mi NE 10.4 mph - N/A Snow Light Snow
4:56 PM 35.1 °F 27.9 °F 35.1 °F 100% 30.22 in 4.0 mi NNE 9.2 mph - 0.00 in Rain Light Rain
5:17 PM 33.8 °F 27.7 °F 33.8 °F 100% 30.22 in 3.0 mi NE 6.9 mph - N/A Rain Light Rain
5:56 PM 34.3 °F 27.7 °F 34.3 °F 100% 30.23 in 5.0 mi NNE 8.1 mph - 0.03 in Rain Light Rain
6:56 PM 34.0 °F 26.6 °F 34.0 °F 100% 30.25 in 5.0 mi North 9.2 mph - 0.03 in   Light Drizzle
8:03 PM 34.2 °F 27.5 °F 34.2 °F 100% 30.23 in 5.0 mi North 8.1 mph - 0.02 in Rain Light Rain
8:54 PM 34.0 °F 28.0 °F 34.0 °F 100% 30.25 in 5.0 mi Variable 6.9 mph - 0.03 in Rain Light Rain
9:54 PM 34.0 °F 25.0 °F 34.0 °F 100% 30.24 in 4.0 mi North 12.7 mph - 0.07 in Rain Light Rain
10:56 PM 33.8 °F 27.7 °F 33.8 °F 100% 30.27 in 4.0 mi North 6.9 mph - 0.07 in Rain Light Rain
11:55 PM 33.8 °F 25.3 °F 33.8 °F 100% 30.24 in 6.0 mi North 11.5 mph - 0.09 in Rain Rain